Miscellaneous Local Product
Issued by NWS North Platte, NE

Home | Current Version | Previous Version | Text Only | Print | Product List | Glossary On
Versions: 1 2 3 4 5 6 7 8 9 10 11 12 13 14 15 16 17 18 19 20 21 22 23 24 25 26 27 28 29 30 31 32 33 34 35 36 37 38 39 40 41 42 43 44 45 46 47 48 49 50
000
AXUS43 KLBF 262210
MISLBF


WESTERN AND NORTH CENTRAL NEBRASKA HOURLY WEATHER ROUNDUP
NATIONAL WEATHER SERVICE NORTH PLATTE NE
400 PM CST FRI DEC 26 2014

***STATIONS NOT REPORTING VARIABLES SUCH AS SKY/WEATHER OR
PRESSURE ARE PROVIDED BY THE NEBRASKA DEPARTMENT OF
ROADS...RAWS...AND APRS NETWORKS...AND ARE NOT UNDER
NATIONAL WEATHER SERVICE QUALITY CONTROL***

...OBSERVATIONS IN AND NEAR THE EASTERN PANHANDLE OF NEBRASKA...

CITY           SKY/WX    TMP DP  RH WIND       PRES   REMARKS
PINE RIDGE     CLOUDY    19  12  74 NE7       30.08R WCI  10
CHADRON        CLOUDY    20  14  77 NE7       30.08R WCI  11
ALLIANCE       CLOUDY    18  14  84 N13       30.01S WCI   5
SIDNEY         MOSUNNY   17  11  77 N13       29.99R WCI   4
WHITECLAY        N/A     18  10  73 NE6         N/A  WCI   9
CRESCENT LAKE    N/A     17  13  84 N9          N/A  WCI   6
LISCO            N/A     23  13  68 W9          N/A  WCI  13
BIG SPRINGS      N/A     22  19  87 N6          N/A  WCI  15
$$

...OBSERVATIONS IN NORTH CENTRAL NEBRASKA...

CITY           SKY/WX    TMP DP  RH WIND       PRES   REMARKS
VALENTINE      CLOUDY    20  16  84 N12       30.09R WCI   8
THEDFORD       LGT SNOW  22  20  91 N15       30.04R WCI   9
AINSWORTH      LGT SNOW  20  18  92 N15       30.06S WCI   7
O`NEILL        LGT SNOW  23  22  96 N9        30.07R WCI  13
ORD            CLOUDY    24  16  71 N16       30.02S WCI  11
BROKEN BOW     LGT SNOW  24  18  77 N17       30.00R WCI  11
BROWNLEE         N/A     19  16  88 N14         N/A  WCI   6
SPRINGVIEW       N/A     21  19  91 N6G14       N/A  WCI  13
BREWSTER         N/A     24  23  96 SE12        N/A  WCI  13
ROSE             N/A     28  28  99 NE8         N/A  WCI  20
SARGENT          N/A     24  20  85 NE3G12      N/A
COMSTOCK         N/A     30  22  73 N20         N/A  WCI  17
CHAMBERS         N/A     23  18  81 NE12        N/A  WCI  12
EWING            N/A     23  21  91 CALM        N/A
$$

...OBSERVATIONS IN SOUTHWEST NEBRASKA AND FAR NORTHEAST COLORADO...

CITY           SKY/WX    TMP DP  RH WIND       PRES   REMARKS
WRAY           LGT SNOW  22  18  83 N14       30.00R WCI   9
HOLYOKE        LGT SNOW  25  19  80 N16       30.00R WCI  12
IMPERIAL       LGT SNOW  21  16  81 N15       30.01R WCI   8
OGALLALA       LGT SNOW  22  19  89 N10       30.02R VSB 3/4 WCI  11
NORTH PLATTE   LGT SNOW  23  19  85 N10       30.02R FOG     WCI  12
MCCOOK         LGT SNOW  25  20  81 N16       30.01R VSB 1   WCI  12
LEXINGTON      CLOUDY    27  19  72 N12       30.00R WCI  16
PAXTON           N/A     23  21  93 N10         N/A  WCI  12
BRADY            N/A     23  19  85 CALM        N/A
GOTHENBURG       N/A     24  20  84 NW5         N/A  WCI  18
CALLAWAY         N/A     22  20  93 N13         N/A  WCI  10
$$

...NORTH PLATTE AREA...

CITY           SKY/WX    TMP DP  RH WIND       PRES   REMARKS
AIRPORT        LGT SNOW  23  19  85 N10       30.02R FOG     WCI  12
DOWNTOWN         N/A     22  19  88 NW9         N/A  WCI  12
$$

...SOME WEATHER OBSERVATIONS FROM AROUND THE REGION...

CITY           SKY/WX    TMP DP  RH WIND       PRES   REMARKS
DENVER         LGT SNOW  18  13  80 N8        29.92R WCI   8
LARAMIE        PTSUNNY    9   4  80 N9        29.81R WCI  -4
CHEYENNE       CLOUDY    14   7  73 N8        29.88R WCI   3
SCOTTSBLUFF    LGT SNOW  20  16  84 N5        30.02S FOG     WCI  13
RAPID CITY     CLOUDY    18  13  80 NE7       30.09R WCI   9
PIERRE         CLOUDY    20  15  81 N12       30.14R WCI   8
WINNER         CLOUDY    22  17  81 N13       30.12R WCI  10
SIOUX FALLS    LGT SNOW  26  22  84 N15       30.04S FOG     WCI  14
OMAHA          CLOUDY    33  30  88 N12       30.00S WCI  24
GRAND ISLAND   FRZ RAIN  26  23  88 N20       30.00S FOG     WCI  12
KANSAS CITY    CLOUDY    41  35  79 NW8       29.92R
WICHITA        CLOUDY    38  32  79 NW15      29.93R WCI  29
HAYS           CLOUDY    28  19  69 N13       29.97R WCI  18
LIBERAL        CLOUDY    28  21  74 N16       29.96S WCI  17
GOODLAND       LGT SNOW  22  18  85 N14       29.97R FOG     WCI   9
$$



USA.gov is the U.S. government's official web portal to all federal, state and local government web resources and services.